Погода в Рощинском

Россия / Самарская область     53°03′04″N   50°29′42″E
темп.,
°C
ветер,
м/с
пор.,
м/с
влажн.,
%
обл.,
%
осадки,
мм/ч
давл.,
гПа
погр.,
м
19 января, ср
ср1901:00−3ю81694100 0.2 1016596
04:00−4ю71493100 0.3 1017455
07:00−4ю71493100 0.0 1016425
10:00−3ю71495100 0.3 1017516
13:00−3ю81695100 0.4 1018608
16:00−3ю71493100 0.6 1018510
19:00−4ююз61296100 0.5 1019425
22:00−4ю51095100 0.7 1020299
20 января, чт
чт2001:00−5ю51096100 0.4 1020304
04:00−5ю51095100 0.5 1021259
07:00−6ю499572 0.0 1021227
10:00−8ю399677 0.1 1022219
13:00−7ю499566 0.1 1022272
16:00−9юв239783 0.1 102354
19:00−12ююв369763 0.1 102374
22:00−15юв229869 0.1 102433
21 января, пт
пт2101:00−12вюв239670 0.1 102358
04:00−13юв239799 0.1 102456
07:00−12вюв249689 0.3 102396
10:00−12вюв359696 0.5 1025127
13:00−9юв3894100 0.1 1024228
16:00−11юв3791100 0.1 1024143
19:00−12юв3890100 0.0 1025147
22:00−15юв3988100 0.0 1025119
22 января, сб
сб2201:00−13юв3987100 0.0 1025188
04:00−12юв41089100 0.0 1025228
07:00−13вюв489498 0.0 1025146
10:00−13юв499586 0.1 1026172
13:00−10юв4994100 0.0 1027249
16:00−10юв4993100 0.0 1028201
19:00−12юв3993100 0.0 1029162
22:00−12юв3890100 0.0 1030157
23 января, вс
вс2301:00−13юв3790100 0.0 1030124
04:00−14юв3789100 0.0 1032102
07:00−13вюв3789100 0.0 1032142
10:00−11вюв3788100 0.0 1034181
13:00−9юв3787100 0.0 1035223
16:00−9вюв3691100 0.0 1036141
19:00−10вюв3592100 0.0 1037108
22:00−11вюв2592100 0.0 1038118